Flag for U.S.A. Weather past 2 weeks in Jackson, Mississippi, U.S.A.

Now
86 °F

Sunny.


Feels Like: 95 °F
Forecast: 76 / 95 °F
Wind: 8 mph from West

Location: Hawkins Field

Current Time: Jul 28, 2015 at 9:23:11 AM

Latest Report: Jul 28, 2015 at 8:53 AM


Visibility: 10 mi

Pressure: 30.01 "Hg

Humidity: 70%

Dew point: 75 °F

Location of JacksonLocation

Historic Weather in Jackson — Graph

°F

Jackson temperature yesterday

Maximum temperature yesterday: 99 °F (at 3:53 PM)
Minimum temperature yesterday: 75 °F (at 5:53 AM)
Average temperature yesterday: 86 °F

Past Weeks' High & Low Weather Summary

 TemperatureHumidityPressure
High99 °F (Jul 27, 3:53 PM)94% (Jul 26, 2:53 AM)30.04 "Hg (Jul 26, 2:53 AM)
Low74 °F (Jul 26, 2:53 AM)31% (Jul 27, 3:53 PM)29.80 "Hg (Jul 14, 4:53 PM)
Average86 °F67%29.93 "Hg
* Reported Jul 13 7:53 AM — Jul 28 7:53 AM, Jackson, Weather by CustomWeather, © 2015

Note: Actual official high and low records may vary slightly from our data, if they occured in-between our weather recording intervals... More about our weather records

Advertising

Jackson weather history for previous 24 hours

 ConditionsComfort  
Time TempWeatherWind HumidityBarometerVisibility
7:53 AM
Tue, Jul 28
81 °FSunny.7 mph79%30.00 "Hg10 mi
6:53 AM78 °FClear.No wind82%29.97 "Hg8 mi
5:53 AM77 °FClear.No wind82%29.96 "Hg10 mi
4:53 AM77 °FClear.No wind82%29.94 "Hg10 mi
3:53 AM78 °FClear.No wind76%29.94 "Hg10 mi
2:53 AM79 °FClear.No wind74%29.93 "Hg10 mi
1:53 AM79 °FClear.No wind77%29.94 "Hg10 mi
12:53 AM80 °FClear.No wind74%29.95 "Hg10 mi
11:53 PM
Mon, Jul 27
83 °FClear.No wind65%29.94 "Hg10 mi
10:53 PM83 °FClear.3 mph63%29.94 "Hg10 mi
9:53 PM85 °FClear.No wind57%29.93 "Hg10 mi
8:53 PM87 °FSunny.No wind51%29.90 "Hg10 mi
7:53 PM90 °FSunny.6 mph45%29.90 "Hg10 mi
6:53 PM94 °FSunny.6 mph38%29.90 "Hg10 mi
5:53 PM96 °FSunny.6 mph38%29.90 "Hg10 mi
4:53 PM96 °FSunny.No wind36%29.90 "Hg10 mi
3:53 PM99 °FPartly sunny.3 mph31%29.91 "Hg10 mi
2:53 PM97 °FPassing clouds.No wind34%29.92 "Hg10 mi
1:53 PM96 °FSunny.10 mph40%29.93 "Hg10 mi
12:53 PM94 °FSunny.6 mph43%29.95 "Hg10 mi
11:53 AM93 °FSunny.N/A47%29.96 "Hg10 mi
10:53 AM90 °FSunny.6 mph54%29.97 "Hg10 mi
9:53 AM88 °FSunny.No wind63%29.98 "Hg10 mi
Weather by CustomWeather, © 2015

See weather overviewHow to use our weather pages